Regional Weather Roundup
Issued by NWS

Home | Current Version | Previous Version | Text Only | Print | Product List | Glossary Off
Versions: 1 2 3 4 5 6 7 8 9 10 11 12 13 14 15 16 17 18 19 20 21 22 23 24 25 26 27 28 29 30 31 32 33 34 35 36 37 38 39 40 41 42 43 44 45 46 47 48 49 50

000
ASUS43 KBIS 132110
RWRND

NORTH DAKOTA REGIONAL WEATHER ROUNDUP
NATIONAL WEATHER SERVICE BISMARCK ND
400 PM CDT SUN JUL 13 2014

NOTE: "FAIR" INDICATES FEW OR NO CLOUDS BELOW 12,000 FEET WITH NO
SIGNIFICANT WEATHER AND/OR OBSTRUCTIONS TO VISIBILITY.


NDZ001>003-009>011-017-132200-
NORTHWEST NORTH DAKOTA

CITY           SKY/WX    TMP DP  RH WIND       PRES   REMARKS
WILLISTON      SUNNY     79  34  19 NW24G31   30.13S
MINOT          SUNNY     72  42  34 NW22G32   30.04S
MINOT AFB      SUNNY     72  43  35 NW28G33   30.03R
$$

NDZ018>021-031>035-040>046-132200-
SOUTHWEST NORTH DAKOTA

CITY           SKY/WX    TMP DP  RH WIND       PRES   REMARKS
BISMARCK       SUNNY     76  41  28 NW18G30   30.06F
DICKINSON      SUNNY     75  39  27 NW17G28   30.11S
GARRISON         N/A     72  43  35 NW20G29   30.06F
HETTINGER ARPT SUNNY     78  43  28 NW25G32   30.13S
$$

NDZ004>008-012>016-024-026-027-054-132200-
NORTHEAST NORTH DAKOTA

CITY           SKY/WX    TMP DP  RH WIND       PRES   REMARKS
GRAND FORKS    PTSUNNY   68  48  48 NW20G26   29.91S
GRND FRKS AFB  MOSUNNY   69  47  45 NW17G30   29.93R
DEVILS LAKE    CLOUDY    66  45  45 NW20G30   29.96R
$$

NDZ022-023-025-028>030-036>039-047>053-132200-
SOUTHEAST NORTH DAKOTA

CITY           SKY/WX    TMP DP  RH WIND       PRES   REMARKS
FARGO          PTSUNNY   77  44  30 W23G31    29.92S
JAMESTOWN      MOSUNNY   73  42  32 NW21G33   29.98S
$$




USA.gov is the U.S. government's official web portal to all federal, state and local government web resources and services.